Home   Weather   Søgne   Past weeks

Flag for Norway Past Weather in Søgne, Norway — Yesterday and Last 2 Weeks

Now
26 °F

Chilly.


Feels Like: 22 °F
Forecast: 36 / 49 °F
Wind: 3 mph from Northeast

Location: Kristiansand / Kjevik

Current Time: Dec 6, 2016 at 7:01:12 am

Latest Report: Dec 6, 2016 at 6:00 am


Visibility: N/A

Pressure: 30.35 "Hg

Humidity: 94%

Dew Point: 25 °F

Location of SøgneLocation

Past Weather in Søgne — Graph

°F

Søgne Temperature Yesterday

Maximum temperature yesterday: 49 °F (at 2:00 pm)
Minimum temperature yesterday: 30 °F (at 11:00 pm)
Average temperature yesterday: 41 °F

High & Low Weather Summary for the Past Weeks

 TemperatureHumidityPressure
High51 °F (Nov 26, 1:00 pm)100% (Dec 1, 7:00 am)30.53 "Hg (Dec 1, 7:00 am)
Low21 °F (Dec 3, 1:00 am)35% (Nov 27, 1:00 pm)29.44 "Hg (Nov 21, 5:00 am)
Average40 °F77%30.06 "Hg
* Reported Nov 21 5:00 am — Dec 6 5:00 am, Søgne, Weather by CustomWeather, © 2016

Note: Actual official high and low records may vary slightly from our data, if they occured in-between our weather recording intervals... More about our weather records

Advertising

Søgne Weather History for the Previous 24 Hours

Scroll right to see more
 ConditionsComfort  
Time TempWeatherWind HumidityBarometerVisibility
5:00 am
Tue, Dec 6
29 °FChilly.3 mph95%30.33 "HgN/A
4:00 am29 °FChilly.3 mph96%30.31 "HgN/A
3:00 am31 °FChilly.2 mph96%30.29 "HgN/A
2:00 am28 °FChilly.3 mph96%30.27 "HgN/A
1:00 am31 °FChilly.1 mph96%30.25 "HgN/A
12:00 am32 °FChilly.5 mph96%30.22 "HgN/A
11:00 pm
Mon, Dec 5
30 °FChilly.3 mph96%30.20 "HgN/A
10:00 pm33 °FChilly.1 mph95%30.19 "HgN/A
9:00 pm35 °FChilly.1 mph95%30.17 "HgN/A
8:00 pm35 °FChilly.2 mph89%30.16 "HgN/A
7:00 pm40 °FQuite cool.2 mph80%30.13 "HgN/A
3:00 pm47 °FCool.6 mph63%30.11 "HgN/A
2:00 pm49 °FCool.3 mph61%30.12 "HgN/A
1:00 pm48 °FCool.5 mph62%30.12 "HgN/A
12:00 pm44 °FQuite cool.6 mph75%30.12 "HgN/A
11:00 am42 °FQuite cool.6 mph78%30.12 "HgN/A
10:00 am40 °FQuite cool.6 mph82%30.12 "HgN/A
9:00 am40 °FQuite cool.7 mph81%30.10 "HgN/A
8:00 am42 °FQuite cool.6 mph73%30.10 "HgN/A
7:00 am43 °FQuite cool.5 mph71%30.11 "HgN/A
Weather by CustomWeather, © 2016

See weather overviewHow to use our weather pages